CZ-3B R/B, 64471

Orbit data source: Space-Track

CZ-3B R/B, 64471 is space debris in HEO originally from a launch on Fri, 20 Jun 2025 UTC launched from the Xichang Space Center, China (XSC). Debris objects in space refer to the collection of defunct objects orbiting the Earth. Examples of debris include non-operational satellites, rocket bodies, and fragments generated from explosions, collisions, or faulty payload assembly.

Loading next visibility...
Identifier
64471, 2025-132B
Orbit
HEO
Last TLE update
2 days ago
Origin
Flag of CNCASC (CN / PRC)
Manufacturer
CALT
Mission
Operational spacecraft
Bus & Motor
CZ-3A STAGE 3, Unknown motor
Mass
~2,800 kg wet, ~2,800 kg dry
Launch date (UTC)
2025-06-20 (1 month ago)
Launch vehicle
Unknown
Launch site
Xichang Space Center, China (XSC)
Object type
Payload
Rocket body
Debris
Shape & HBR
Unknown
Radar Cross Section
RCS unknown

Expand to show TLE details & history

TLE from 2 days ago
0 CZ-3B R/B
1 64471U 25132B   25198.46528958  .00020018  00000-0  21875-2 0  9993
2 64471  27.7615  85.1583 7324403 195.9977 114.0999  2.24815000   625
Epoch: 2025-07-17T11:10Z
TLE epoch observation values (Epoch: 2025-07-17T11:10:01.019Z)
Latitude
0.00016°
Longitude
-17.84067°
Altitude
32,184.556 km
Speed
2.116 km/s
True Right ascension
05h 40m 46s
True Declination
0° 00' 01"
Sunlit
Object was in daylight at epoch
Visualization orbit readout
Latitude
12.36834°
Longitude
5.99421°
Altitude
34,502.83 km
Speed
1.818 km/s
Apparent Right ascension
07h 32m 35s
Apparent Declination
6° 05' 40"
Sunlit
Object is in daylight
Visualization observer readout
Local Sidereal Time
21:55:53
Azimuth
44.189° NE
Elevation
-33.382°
Doppler factor
1
Orbital elements
Apogee altitude
36,271.075 km
Perigee altitude
208.647 km
Semi-major axis
24,617.998 km
Eccentricity
0.73244
Inclination
27.7615°
RAAN
85.1583°
Arg. of periapsis
195.9977°
True anomaly
164.01888°
Mean anomaly
114.0999°
Eccentric anomaly
140.68736°
Mean motion
0.56191 °/min
Orbital period
640.68 mins
BSTAR
0.0021875
Loading maneuver chart data...
Loading SW <> Apogee altitude chart data...
Loading historical data...
Loading historical data...
Loading historical data...
Loading historical data...
Loading historical data...
Loading historical data...
Loading historical data...
Other satellites on launch #132 in the year 2025 (2025-06-20 UTC)
|